Weather reports worldwide

Advertisment
Brownsville/Int., United States of America (72250): temperature & dewpoint: 29.06.2020 04:00:00 - 05.07.2020 04:00:00 (CDT)Brownsville/Int., United States of America (72250): wind speed & gusts: 29.06.2020 04:00:00 - 05.07.2020 04:00:00 (CDT)Brownsville/Int., United States of America (72250): wind direction: 29.06.2020 04:00:00 - 05.07.2020 04:00:00 (CDT)Brownsville/Int., United States of America (72250): reduced air pressure: 29.06.2020 04:00:00 - 05.07.2020 04:00:00 (CDT)Brownsville/Int., United States of America (72250): visibility: 29.06.2020 04:00:00 - 05.07.2020 04:00:00 (CDT)Brownsville/Int., United States of America (72250): precipitation: 29.06.2020 04:00:00 - 05.07.2020 04:00:00 (CDT)
Date & Time tt [°C] td [°C] ff [km/h] ff [kn] fx [km/h] fx [kn] dd ppp [hPa] vv [km] rr [mm]
05.07.2020 04:00:00 25,6 24,4 13 7 - - S 1011,6 16 -
05.07.2020 03:00:00 25,6 24,4 11 6 - - S 1011,8 16 -
05.07.2020 02:00:00 25,6 24,4 11 6 - - SSE 1012,2 16 -
05.07.2020 01:00:00 25,6 24,4 9 5 - - SSE 1012,3 16 0,0
05.07.2020 00:00:00 26,1 24,4 11 6 - - SSE 1012,6 16 -
04.07.2020 23:00:00 26,7 24,4 13 7 - - SSE 1012,1 16 -
04.07.2020 22:00:00 27,8 24,4 13 7 - - SSE 1011,4 16 -
04.07.2020 21:00:00 28,3 23,9 21 11 - - SSE 1011,1 16 -
04.07.2020 20:00:00 29,4 23,9 22 12 - - SE 1010,7 16 -
04.07.2020 19:00:00 31,1 23,9 22 12 - - SE 1010,8 16 0,0
04.07.2020 18:00:00 32,8 23,3 22 12 - - SSE 1010,9 16 -
04.07.2020 17:00:00 33,3 22,8 24 13 - - SSE 1011,5 16 -
04.07.2020 16:00:00 33,9 23,3 28 15 - - SSE 1012,1 16 -
04.07.2020 15:00:00 34,4 23,9 24 13 - - SE 1012,7 16 -
04.07.2020 14:00:00 34,4 21,7 18 10 - - S 1013,1 16 -
04.07.2020 13:00:00 33,9 22,2 16 9 - - S 1013,6 16 0,0
04.07.2020 12:00:00 32,2 23,3 16 9 - - SSE 1014,0 16 -
04.07.2020 11:00:00 32,2 23,9 22 12 - - S 1013,8 16 -
04.07.2020 10:00:00 29,4 23,9 15 8 - - S 1013,7 16 -
04.07.2020 09:00:00 27,8 25,0 8 4 - - SSE 1014,0 16 -
04.07.2020 08:00:00 26,1 24,4 0 0 - - N 1013,8 16 -
04.07.2020 07:00:00 25,0 23,9 8 4 - - SE 1013,2 16 0,0
04.07.2020 06:00:00 25,0 23,9 13 7 - - S 1012,7 16 -
04.07.2020 05:00:00 25,0 23,9 8 4 - - SSE 1013,3 16 -
04.07.2020 04:00:00 25,0 23,9 9 5 - - SSE 1013,2 16 -
04.07.2020 03:00:00 25,0 23,9 11 6 - - S 1013,5 16 -
04.07.2020 02:00:00 25,6 23,9 9 5 - - S 1014,1 16 -
04.07.2020 01:00:00 25,6 24,4 11 6 - - SSE 1014,4 16 0,0
04.07.2020 00:00:00 26,7 24,4 11 6 - - SSE 1014,6 16 -
03.07.2020 23:00:00 26,7 24,4 13 7 - - SSE 1014,0 16 -
03.07.2020 22:00:00 27,2 24,4 13 7 - - SE 1013,7 16 -
03.07.2020 21:00:00 28,3 23,9 18 10 - - SE 1013,1 16 -
03.07.2020 20:00:00 30,0 23,9 21 11 - - ESE 1012,5 16 -
03.07.2020 19:00:00 31,7 23,3 21 11 - - ESE 1012,2 16 0,0
03.07.2020 18:00:00 32,2 22,8 21 11 - - SE 1012,1 16 -
03.07.2020 17:00:00 33,3 23,3 21 11 - - SE 1012,6 16 -
03.07.2020 16:00:00 33,3 23,9 24 13 - - SSE 1013,0 16 -
03.07.2020 15:00:00 34,4 23,9 21 11 - - SE 1013,6 16 -
03.07.2020 14:00:00 33,3 23,9 21 11 - - ESE 1014,4 16 -
03.07.2020 13:00:00 32,2 23,9 21 11 - - SE 1014,9 16 0,0
03.07.2020 12:00:00 31,7 23,9 24 13 - - SSE 1015,1 16 -
03.07.2020 11:00:00 30,6 23,3 13 7 - - S 1015,3 10 -
03.07.2020 10:00:00 28,3 24,4 15 8 - - SSE 1015,2 16 -
03.07.2020 09:00:00 26,7 25,0 11 6 - - SSE 1015,1 16 -
03.07.2020 08:00:00 25,0 23,9 0 0 - - N 1014,4 16 -
03.07.2020 07:00:00 24,4 23,3 5 3 - - SE 1013,7 16 0,0
03.07.2020 06:00:00 25,0 23,3 8 4 - - SE 1013,6 16 -
03.07.2020 05:00:00 25,0 23,3 8 4 - - SE 1013,6 16 -
03.07.2020 04:00:00 25,0 23,3 8 4 - - S 1013,7 16 -
03.07.2020 03:00:00 25,6 23,9 11 6 - - SE 1014,3 16 -
03.07.2020 02:00:00 25,6 23,9 8 4 - - SE 1014,6 16 -
03.07.2020 01:00:00 25,6 23,9 9 5 - - SE 1014,7 16 0,0
03.07.2020 00:00:00 26,1 23,9 11 6 - - SE 1014,9 16 -
02.07.2020 23:00:00 26,1 23,9 11 6 - - SE 1014,2 16 -
02.07.2020 22:00:00 27,2 23,9 9 5 - - SE 1013,4 16 -
02.07.2020 21:00:00 27,8 23,3 16 9 - - SE 1013,1 16 -
02.07.2020 20:00:00 29,4 22,8 22 12 - - SE 1012,8 16 -
02.07.2020 19:00:00 30,6 22,8 24 13 - - SE 1012,3 16 0,0
02.07.2020 18:00:00 31,7 22,2 28 15 - - SSE 1012,6 16 -
02.07.2020 17:00:00 32,8 22,8 26 14 - - ESE 1012,9 16 -
02.07.2020 16:00:00 33,3 22,8 22 12 - - SE 1013,0 16 -
02.07.2020 15:00:00 33,3 22,8 26 14 - - SSE 1013,3 16 -
02.07.2020 14:00:00 33,9 23,9 24 13 - - SSE 1013,4 16 -
02.07.2020 13:00:00 34,0 23,0 24 13 - - S 1013,9 16 0,0
02.07.2020 12:00:00 32,8 23,3 - - - - - 1014,1 - -
02.07.2020 11:00:00 31,7 23,9 26 14 - - S 1013,9 16 -
02.07.2020 10:00:00 30,0 25,0 22 12 - - S 1013,8 16 -
02.07.2020 09:00:00 28,9 25,0 22 12 - - S 1013,5 16 -
02.07.2020 08:00:00 26,7 25,0 15 8 - - S 1013,0 16 -
02.07.2020 07:00:00 26,7 24,4 15 8 - - SSE 1012,4 16 0,0
02.07.2020 06:00:00 26,7 25,0 15 8 - - SSE 1012,2 16 -
02.07.2020 05:00:00 26,7 25,0 15 8 - - S 1012,3 16 -
02.07.2020 04:00:00 27,2 25,0 21 11 - - SSE 1012,5 16 -
02.07.2020 03:00:00 27,2 25,6 22 12 - - SSE 1012,7 16 -
02.07.2020 02:00:00 27,8 25,6 18 10 - - SSE 1013,0 16 -
02.07.2020 01:00:00 27,8 25,6 18 10 - - SSE 1012,9 16 0,0
02.07.2020 00:00:00 27,8 26,1 18 10 - - SSE 1012,2 16 -
01.07.2020 23:00:00 27,8 26,1 18 10 - - SE 1012,1 16 -
01.07.2020 22:00:00 28,3 26,1 16 9 - - SE 1011,4 16 -
01.07.2020 21:00:00 28,9 26,1 28 15 - - SE 1010,2 16 -
01.07.2020 20:00:00 30,0 25,6 29 16 - - SSE 1009,9 16 -
01.07.2020 19:00:00 31,1 25,6 28 15 - - SSE 1009,9 16 0,0
01.07.2020 18:00:00 32,2 25,0 34 18 - - SSE 1010,2 16 -
01.07.2020 17:00:00 32,8 25,6 31 17 - - SSE 1010,7 16 -
01.07.2020 16:00:00 33,3 25,0 31 17 - - SSE 1011,1 16 -
01.07.2020 15:00:00 33,3 25,6 28 15 - - SE 1011,6 16 -
01.07.2020 14:00:00 32,8 25,0 29 16 - - SSE 1012,0 16 -
01.07.2020 13:00:00 34,0 24,0 35 19 52 28 S 1012,1 16 0,0
01.07.2020 12:00:00 33,0 26,0 26 14 - - S - 16 -
01.07.2020 11:00:00 31,1 23,9 29 16 - - S 1012,8 16 -
01.07.2020 10:00:00 30,0 24,4 26 14 - - S 1012,5 16 -
01.07.2020 09:00:00 30,0 25,0 29 16 - - S 1012,6 16 -
01.07.2020 08:00:00 27,2 25,0 16 9 - - S 1012,1 16 -
01.07.2020 07:00:00 26,1 24,4 11 6 - - S 1011,3 16 0,0
01.07.2020 06:00:00 26,1 24,4 16 9 - - SSE 1011,2 16 -
01.07.2020 05:00:00 27,2 25,0 16 9 - - SSE 1011,1 16 -
01.07.2020 04:00:00 27,2 25,0 13 7 - - SE 1010,9 16 -
01.07.2020 03:00:00 27,2 25,0 16 9 - - SSE 1011,2 16 -
01.07.2020 02:00:00 27,2 25,0 16 9 - - SSE 1011,3 16 -
01.07.2020 01:00:00 27,2 25,0 16 9 - - SSE 1011,7 16 0,0
01.07.2020 00:00:00 27,8 25,0 15 8 - - SSE 1011,7 16 -
30.06.2020 23:00:00 27,8 25,0 21 11 - - SSE 1010,8 16 -
30.06.2020 22:00:00 28,3 25,6 21 11 - - SE 1010,3 16 -
30.06.2020 21:00:00 28,9 25,6 26 14 - - SSE 1009,8 16 -
30.06.2020 20:00:00 30,0 25,6 29 16 50 27 SSE 1009,5 16 -
30.06.2020 19:00:00 31,1 25,6 31 17 - - SSE 1009,2 16 0,0
30.06.2020 18:00:00 32,2 25,0 37 20 54 29 SSE 1008,9 16 -
30.06.2020 17:00:00 32,8 25,6 35 19 54 29 SSE 1009,0 16 -
30.06.2020 16:00:00 33,9 25,6 37 20 50 27 SSE 1009,5 16 -
30.06.2020 15:00:00 33,3 25,6 37 20 52 28 S 1010,1 16 -
30.06.2020 14:00:00 32,0 25,0 37 20 - - S - 16 -
30.06.2020 13:00:00 32,2 25,0 34 18 50 27 S 1011,2 16 0,0
30.06.2020 12:00:00 31,7 25,6 37 20 55 30 SSE 1011,6 16 -
30.06.2020 11:00:00 31,1 25,0 31 17 55 30 S - 16 -
30.06.2020 10:00:00 30,6 25,6 35 19 48 26 SSE 1011,8 16 -
30.06.2020 09:00:00 27,2 25,0 28 15 - - SSE 1011,9 16 -
30.06.2020 08:00:00 28,3 25,0 21 11 - - SSE 1011,2 16 -
30.06.2020 07:00:00 27,2 25,0 22 12 - - SSE 1010,7 16 0,0
30.06.2020 06:00:00 26,7 25,0 21 11 - - SSE 1010,7 16 -
30.06.2020 05:00:00 27,2 24,4 22 12 - - SSE 1010,5 16 -
30.06.2020 04:00:00 26,7 24,4 18 10 - - SSE 1010,6 16 -
30.06.2020 03:00:00 26,7 24,4 21 11 - - SSE 1011,0 16 -
30.06.2020 02:00:00 27,2 25,0 22 12 - - SSE 1011,5 10 -
30.06.2020 01:00:00 27,8 24,4 18 10 - - SSE 1011,6 16 0,0
30.06.2020 00:00:00 27,8 25,0 28 15 - - SSE 1011,3 10 -
29.06.2020 23:00:00 28,3 25,0 29 16 - - SSE 1010,7 16 -
29.06.2020 22:00:00 28,3 25,6 22 12 - - SSE 1010,2 16 -
29.06.2020 21:00:00 28,3 25,6 28 15 - - SSE 1010,2 16 -
29.06.2020 20:00:00 29,4 25,0 35 19 48 26 SSE 1009,8 16 -
29.06.2020 19:00:00 30,6 25,0 29 16 50 27 SSE 1009,2 16 0,0
29.06.2020 18:00:00 32,2 25,0 41 22 63 34 SSE 1008,7 16 -
29.06.2020 17:00:00 33,3 25,0 44 24 63 34 S 1008,8 16 -
29.06.2020 16:00:00 31,7 24,4 44 24 63 34 SSE 1009,4 16 -
29.06.2020 15:00:00 32,8 25,0 35 19 61 33 SSE 1010,0 - -
29.06.2020 14:00:00 33,3 25,6 42 23 61 33 S 1010,4 16 -
29.06.2020 13:00:00 33,3 25,0 48 26 63 34 SSE 1010,7 16 0,0
29.06.2020 12:00:00 32,8 25,0 31 17 65 35 S 1011,2 16 -
29.06.2020 11:00:00 32,2 24,4 48 26 59 32 SSE 1011,2 16 -
29.06.2020 10:00:00 31,1 24,4 46 25 61 33 SSE 1011,1 10 -
29.06.2020 09:00:00 30,0 25,0 37 20 52 28 SSE 1010,9 16 -
29.06.2020 08:00:00 27,2 24,4 22 12 - - SSE 1010,7 16 -
29.06.2020 07:00:00 26,7 24,4 24 13 - - SSE 1009,9 16 0,0
29.06.2020 06:00:00 26,7 24,4 26 14 - - SSE 1009,8 16 -
29.06.2020 05:00:00 26,7 24,4 21 11 - - SSE 1009,3 16 -
29.06.2020 04:00:00 26,1 24,4 15 8 - - S 1009,6 16 -

tt = temperature
td = dewpoint
ff = wind speed
fx = gusts
dd = wind direction
ppp = reduced air pressure
vv = visibility
rr = precipitation

Next stations